Location: ?????
(44.4284°N, 135.2222°E)
Time: 06:55:19
(UTC+00:00)

Cosmos 1538 Rocket - Pass Details

Date: 19 May 2025
Orbit: 749 x 788 km, 74.0° (Epoch: 15 June)

Event Time Altitude Azimuth Distance (km) Brightness Sun altitude
Exits shadow 14:29:29 69° 239° (WSW) 806 3.9 -25.4°
Maximum altitude 14:30:00 77° 291° (WNW) 776 3.9 -25.4°
Drops below altitude 10° 14:35:10 10° 18° (NNE) 2,279 7.3 -25.5°
Sets 14:37:33 0° 20° (NNE) 3,206 8.3 -25.5°
